Flag for Germany Weather past 2 weeks in Bad Nauheim, Hesse, Germany

Now
49 °F

Overcast.


Feels Like: 45 °F
Forecast: 38 / 47 °F
Wind: 9 mph from Southwest

Location: Giessen

Current Time: Dec 23, 2014 at 2:17:15 AM

Latest Report: Dec 23, 2014 at 2:00 AM


Visibility: 44 mi

Pressure: 30.13 "Hg

Humidity: 86%

Dew point: 45 °F

Location of Bad NauheimLocation

Historic Weather in Bad Nauheim — Graph

°F

Bad Nauheim temperature yesterday

Maximum temperature yesterday: 48 °F (at 9:00 PM)
Minimum temperature yesterday: 42 °F (at 1:00 AM)
Average temperature yesterday: 45 °F

Past Weeks' High & Low Weather Summary

 TemperatureHumidityPressure
High54 °F (Dec 18, 9:00 PM)100% (Dec 8, 5:00 AM)30.45 "Hg (Dec 8, 5:00 AM)
Low27 °F (Dec 9, 3:00 AM)77% (Dec 12, 2:00 PM)29.54 "Hg (Dec 12, 6:00 PM)
Average40 °F94%30.03 "Hg
* Reported Dec 8 1:00 AM — Dec 23 1:00 AM, Bad Nauheim, Weather by CustomWeather, © 2014

Note: Actual official high and low records may vary slightly from our data, if they occured in-between our weather recording intervals... More about our weather records

Advertising

Bad Nauheim weather history for previous 24 hours

 ConditionsComfort  
Time TempWeatherWind HumidityBarometerVisibility
1:00 AM
Dec 23
48 °FOvercast.9 mph87%30.14 "Hg43 mi
12:00 AM48 °FOvercast.9 mph87%30.14 "Hg43 mi
11:00 PM
Dec 22
48 °FOvercast.10 mph86%30.13 "Hg43 mi
10:00 PM48 °FOvercast.10 mph86%30.12 "Hg43 mi
9:00 PM48 °FOvercast.9 mph85%30.13 "Hg43 mi
8:00 PM48 °FLow clouds.9 mph87%30.14 "Hg40 mi
7:00 PM47 °FLow clouds.9 mph88%30.14 "Hg43 mi
6:00 PM46 °FLow clouds.10 mph90%30.14 "Hg12 mi
5:00 PM46 °FLow clouds.9 mph89%30.15 "Hg19 mi
4:00 PM46 °FOvercast.12 mph88%30.14 "Hg31 mi
3:00 PM46 °FOvercast.10 mph88%30.13 "Hg25 mi
2:00 PM45 °FLow clouds.13 mph88%30.15 "Hg25 mi
1:00 PM45 °FLow clouds.13 mph90%30.16 "Hg19 mi
12:00 PM45 °FLow clouds.13 mph91%30.19 "Hg16 mi
11:00 AM45 °FOvercast.13 mph90%30.19 "Hg28 mi
10:00 AM44 °FLow clouds.12 mph92%30.19 "Hg19 mi
9:00 AM44 °FLow clouds.13 mph93%30.19 "Hg25 mi
8:00 AM44 °FLow clouds.13 mph91%30.19 "Hg37 mi
7:00 AM44 °FRain. Low clouds.10 mph90%30.18 "Hg12 mi
6:00 AM44 °FOvercast.9 mph89%30.19 "Hg31 mi
5:00 AM44 °FOvercast.10 mph88%30.21 "Hg43 mi
4:00 AM44 °FLow clouds.10 mph89%30.23 "Hg28 mi
3:00 AM44 °FOvercast.10 mph87%30.24 "Hg37 mi
2:00 AM43 °FLow clouds.8 mph91%30.25 "Hg37 mi
Weather by CustomWeather, © 2014

See weather overviewHow to use our weather pages